Location: Rounton
(54.4000°N, 1.3500°W)
Time: 18:49:07
(UTC+00:00)

FENGYUN 1C DEB - Visible Passes

Search period start: 28 November 2022 00:00
Search period end: 08 December 2022 00:00
Orbit: 717 x 890 km, 98.1° (Epoch: 26 November)

Date Brightness Start Highest point End Pass type
(mag) Time Alt. Az. Time Alt. Az. Time Alt. Az.
28 Nov ? 03:38:46 10° N 03:39:21 13° N 03:39:21 13° N visible
28 Nov ? 05:19:48 10° N 05:20:21 12° NNW 05:20:21 12° NNW visible
29 Nov ? 03:13:12 10° NNE 03:13:25 11° NNE 03:13:25 11° NNE visible
29 Nov ? 04:53:47 10° N 04:54:25 12° N 04:54:25 12° N visible
30 Nov ? 04:27:56 10° N 04:28:29 12° N 04:28:29 12° N visible
01 Dec ? 04:02:12 10° N 04:02:33 12° N 04:02:33 12° N visible
02 Dec ? 03:36:32 10° N 03:36:37 10° N 03:36:37 10° N visible
02 Dec ? 05:17:34 10° NNW 05:17:37 10° NNW 05:17:37 10° NNW visible
03 Dec ? 04:51:32 10° N 04:51:41 11° N 04:51:41 11° N visible
04 Dec ? 04:25:40 10° N 04:25:44 10° N 04:25:44 10° N visible
